Tracking 19709 objects as of 18-Jun-2019
HD Live streaming from Space Station
objects crossing your sky now

DMSP 5D-2 F11 DEB

Track DMSP 5D-2 F11 DEB now!
10-day predictions


NORAD ID: 28332
Int'l Code: 1991-082AV
Perigee: 560.4 km
Apogee: 577.7 km
Inclination: 98.7 °
Period: 95.9 minutes
Semi major axis: 6940 km
RCS: 0.0108 m2 (small)
Launch date: November 28, 1991
Source: United States (US)
Launch site: AIR FORCE WESTERN TEST RANGE (AFWTR)

Note: This is SATELLITE DEBRIS
aabbcc
Your satellite tracking list
Your tracking list is empty




NASA's NSSDC Master Catalog

Two Line Element Set (TLE):
1 28332U 91082AV  19167.98147149  .00012293  00000-0  95038-3 0  9990
2 28332  98.7231   4.8049 0012468 187.4757 172.6280 15.01623366792248
Source of the keplerian elements: AFSPC